#timestamp,LO_Frequency,Hit,StdDev 
1643108415.1,286046999.0,N
1643108416.0,286046999.0,N
1643108435.8,286046998.3,N
1643108455.7,286046999.0,N
1643108475.5,286046997.1,Y
1643108495.4,286046998.1,P
1643108515.2,286046998.6,N
1643108535.0,286047001.2,N
1643108535.9,286047001.2,N
1643108555.8,286047000.8,N
1643108575.6,286046999.8,N
1643108595.4,286046998.5,N
1643108615.3,286046999.5,N
1643108635.1,286046996.9,N
1643108655.9,286046998.4,N
1643108675.7,286046999.2,N
1643108695.5,286046998.4,N
1643108715.4,286046998.2,N
1643108735.2,286047001.1,N
1643108755.0,286046999.3,N
1643108755.9,286046999.3,N
1643108775.8,286046998.4,N
1643108795.6,286046997.1,N
1643108815.5,286046996.9,N
1643108835.3,286046996.9,N
1643108855.1,286046996.5,N
1643108875.9,286046999.3,N
1643108895.7,286046999.6,N
1643108915.5,286046999.4,N
1643108935.4,286046998.9,N
1643108955.2,286046999.0,N
1643108975.1,286046998.3,N
1643108976.0,286046998.3,N
1643108995.8,286047000.9,N
1643109015.6,286047000.6,N
1643109035.5,286047001.1,N
1643109055.3,286047002.1,N
1643109075.1,286047000.2,N
1643109095.9,286047000.0,N
1643109115.7,286047002.7,N
1643109135.6,286047002.1,N
1643109155.4,286047002.8,N
1643109175.2,286047000.1,N
1643109195.1,286047002.5,N
1643109196.0,286047002.5,N
1643109215.8,286047002.7,N
1643109235.7,286047000.2,N
1643109255.5,286047000.3,N
1643109275.3,286046998.5,N
1643109295.2,286046998.9,N
1643109315.9,286046998.8,N
1643109335.7,286046998.3,N
1643109355.6,286046998.6,N
1643109375.4,286046998.2,N
1643109395.3,286046999.2,N
1643109415.1,286046998.1,N
1643109435.8,286047001.1,N
1643109455.7,286047000.5,N
1643109475.5,286047000.8,N
1643109495.4,286047001.0,N
1643109515.2,286046998.5,N
1643109535.0,286046998.2,N
1643109535.9,286046998.2,N
1643109555.8,286046999.2,N
1643109575.6,286046999.0,N
1643109595.4,286046996.8,N
1643109615.3,286046998.7,N
1643109635.1,286046998.7,N
1643109655.9,286046998.1,N
1643109675.7,286047000.4,N
1643109695.5,286047000.2,N
1643109715.4,286046998.4,N
1643109735.2,286046999.0,N
1643109755.0,286047001.1,N
1643109756.0,286047001.1,N
1643109775.8,286047000.4,N
1643109795.6,286047001.2,N
1643109815.5,286047000.8,N
1643109835.3,286046998.6,N
1643109855.1,286046998.6,N
1643109875.9,286047001.1,N
1643109895.7,286046998.1,N
1643109915.6,286047000.1,N
1643109935.4,286047000.4,N
1643109955.2,286047000.5,N
1643109975.1,286047001.0,N
1643109976.0,286047001.0,N
1643109995.8,286047000.4,N
1643110015.6,286047000.3,N
1643110035.5,286047000.5,N
1643110055.3,286047002.6,N
1643110075.2,286047003.4,N
1643110095.9,286047002.8,N
1643110115.7,286046999.7,N
1643110135.6,286046999.7,N
1643110155.4,286047002.2,N
1643110175.2,286047002.3,N
1643110195.1,286047001.3,N
1643110196.0,286047001.3,N
1643110215.8,286047001.6,N
1643110235.7,286047004.3,Y
1643110255.5,286047002.2,P
1643110275.3,286047002.4,P
1643110295.2,286047002.3,N
1643110315.0,286046999.7,N
1643110315.9,286046999.7,N
1643110335.8,286047000.2,N
1643110355.6,286047002.7,N
1643110375.4,286047002.4,N
1643110395.3,286046999.7,N
1643110415.1,286047002.5,N
1643110435.8,286047002.7,N
1643110455.7,286047000.4,N
1643110475.5,286047001.9,N
1643110495.4,286047000.2,N
1643110515.2,286047000.6,N
1643110535.0,286046998.8,N
1643110536.0,286046998.8,N
1643110555.8,286047001.2,N
1643110575.6,286047000.5,N
1643110595.5,286046998.6,N
1643110615.3,286046998.9,N
1643110635.1,286046999.6,N
1643110655.9,286046999.2,N
1643110675.7,286047002.6,N
1643110695.5,286046999.9,N
1643110715.4,286047000.6,N
1643110735.2,286047001.2,N
1643110755.1,286046998.5,N
1643110756.0,286046998.5,N
1643110775.8,286046998.2,N
1643110795.6,286046999.7,N
1643110815.5,286047002.4,N
1643110835.3,286047002.3,N
1643110855.2,286047003.5,N
1643110875.9,286047001.5,N
1643110895.7,286047002.4,N
1643110915.6,286047003.6,N
1643110935.4,286047001.5,N
1643110955.3,286047001.2,N
1643110975.1,286046998.2,N
1643110976.0,286046998.2,N
1643110995.8,286046998.1,N
1643111015.7,286047000.7,N
1643111035.5,286047000.8,N
1643111055.3,286046999.9,N
1643111075.2,286047002.8,N
1643111095.0,286047003.9,N
1643111095.9,286047003.9,N
1643111115.8,286047001.3,N
1643111135.6,286047001.4,N
1643111155.5,286047002.2,N
1643111175.3,286046999.7,N
1643111195.1,286046999.9,N
1643111215.9,286047000.3,N
1643111235.7,286047002.3,N
1643111255.6,286046999.7,N
1643111275.4,286047000.6,N
1643111295.2,286046998.2,N
1643111315.1,286047001.1,N
1643111316.0,286047001.1,N
1643111335.8,286047000.5,N
1643111355.7,286047000.2,N
1643111375.5,286047000.9,N
1643111395.3,286046999.0,N
1643111415.2,286046998.9,N
1643111435.0,286046998.6,N
1643111435.9,286046998.6,N
1643111455.8,286046998.6,N
1643111475.6,286046999.4,N
1643111495.4,286046998.1,N
1643111515.3,286047000.7,N
1643111535.1,286047000.6,N
1643111555.8,286047000.1,N
1643111575.7,286047001.8,N
1643111595.5,286047002.7,N
1643111615.4,286046999.7,N
1643111635.8,286047000.6,N
1643111655.7,286047000.9,N
1643111675.5,286047000.6,N
1643111695.3,286046999.9,N
1643111715.2,286047002.4,N
1643111735.0,286046999.8,N
1643111735.9,286046999.8,N
1643111755.7,286047000.4,N
1643111775.6,286047000.6,N
1643111795.4,286047001.5,N
1643111815.3,286047002.8,N
1643111835.1,286046999.7,N
1643111836.0,286046999.7,N
1643111855.8,286047003.5,N
1643111875.7,286047004.3,Y
1643111895.5,286047002.8,P
1643111915.4,286047003.7,N
1643111935.2,286047004.0,N
1643111955.0,286047001.5,N
1643111955.9,286047001.5,N
1643111975.8,286047001.9,N
1643111995.6,286047001.9,N
